Laramie, WY

10:53 PM MDT on August 25, 2016 (GMT -0600)
Laramie Regional

Weather History for KLAR - February, 2015

Change the Weather History Date:

Thursday, February 26, 2015

  Actual Average Record
Temperature  
Mean Temperature 6 °F 26 °F  
Max Temperature 13 °F 38 °F 62 °F (1950)
Min Temperature -1 °F 14 °F -20 °F (1964)
Degree Days  
Heating Degree Days 59 39  
Month to date heating degree days 941 1082  
Since 1 July heating degree days 5567 6097  
Cooling Degree Days 0 0  
Month to date cooling degree days 0 0  
Year to date cooling degree days 0 0  
Moisture  
Dew Point 1 °F    
Average Humidity 81    
Maximum Humidity 95    
Minimum Humidity 66    
Precipitation  
Precipitation T in 0.01 in 0.19 in (1954)
Month to date precipitation 0.26 0.31  
Year to date precipitation 0.38 0.58  
Sea Level Pressure  
Sea Level Pressure 30.12 in    
Wind  
Wind Speed 9 mph (SSE)    
Max Wind Speed 24 mph    
Max Gust Speed 31 mph    
Visibility 8 miles    
Events Snow    
T = Trace of Precipitation, MM = Missing Value Source: NWS Daily Summary

Daily Weather History Graph

Daily Weather History Graph

Search for Another Location

Airport or City:

Trip Planner

Search our weather history database for the weather conditions in past years. The results will help you decide how hot, cold, wet, or windy it might be!

Date:

Astronomy

Feb. 26, 2015 Rise Set
Actual Time 6:42 AM MST 5:49 PM MST
Civil Twilight 6:14 AM MST 6:17 PM MST
Nautical Twilight 5:42 AM MST 6:49 PM MST
Astronomical Twilight 5:10 AM MST 7:21 PM MST
Moon 11:50 AM MST 1:42 AM MST
Length of Visible Light 12h 03m
Length of Day
11h 07m
First Quarter, 61% of the Moon is Illuminated
Feb 26
First Quarter
Mar 5
Full
Mar 13
Last Quarter
Mar 20
New
Mar 27
First Quarter

Hourly Weather History & Observations

Time (MST) Temp. Windchill Dew Point Humidity Pressure Visibility Wind Dir Wind Speed Gust Speed Precip Events Conditions
12:09 AM 8.1 °F -0.5 °F 5.0 °F 87% 30.03 in 10.0 mi West 4.6 mph - N/A   Overcast
12:53 AM 7.0 °F -4.5 °F 3.9 °F 87% 30.18 in 9.0 mi West 6.9 mph - N/A   Overcast
1:53 AM 7.0 °F -1.7 °F 3.9 °F 87% 30.21 in 10.0 mi West 4.6 mph - N/A   Overcast
2:32 AM 7.0 °F -1.7 °F 3.9 °F 87% 30.01 in 10.0 mi North 4.6 mph - N/A   Overcast
2:53 AM 6.1 °F -0.9 °F 3.0 °F 87% 30.18 in 10.0 mi NNE 3.5 mph - N/A   Scattered Clouds
3:15 AM 3.0 °F - -0.0 °F 87% 30.01 in 10.0 mi Calm Calm - N/A   Mostly Cloudy
3:53 AM 7.0 °F -3.3 °F 3.0 °F 84% 30.18 in 10.0 mi NNW 5.8 mph - N/A   Overcast
4:19 AM 5.0 °F -2.1 °F 3.0 °F 92% 30.00 in 10.0 mi NNW 3.5 mph - N/A   Overcast
4:53 AM 6.1 °F - 3.0 °F 87% 30.18 in 10.0 mi Calm Calm - N/A   Overcast
5:53 AM -0.0 °F - -4.0 °F 83% 30.21 in 2.5 mi Calm Calm - N/A   Scattered Clouds
6:11 AM -0.0 °F - -2.0 °F 91% 29.99 in 5.0 mi Calm Calm - N/A   Mostly Cloudy
6:24 AM -0.9 °F -8.9 °F -4.0 °F 87% 29.99 in 0.8 mi WSW 3.5 mph - N/A   Mostly Cloudy
6:36 AM -0.0 °F - -4.0 °F 83% 29.98 in 1.8 mi Calm Calm - N/A   Mostly Cloudy
6:47 AM 1.4 °F -11.3 °F -2.2 °F 85% 29.99 in 4.0 mi West 6.9 mph - N/A   Mostly Cloudy
6:53 AM 1.9 °F -9.2 °F -0.9 °F 88% 30.21 in 9.0 mi West 5.8 mph - N/A   Overcast
7:53 AM 8.1 °F - 6.1 °F 92% 30.18 in 9.0 mi Calm Calm - N/A   Overcast
8:36 AM 10.0 °F 3.6 °F 7.0 °F 87% 29.99 in 1.8 mi East 3.5 mph - 0.00 in Snow Light Snow
8:53 AM 9.0 °F - 8.1 °F 96% 30.21 in 1.8 mi Calm Calm - 0.00 in Snow Light Snow
9:03 AM 10.9 °F - 8.1 °F 88% 29.99 in 2.0 mi Calm Calm - 0.00 in Snow Light Snow
2:33 PM 12.9 °F -4.4 °F 5.0 °F 71% 29.94 in 10.0 mi SSE 18.4 mph - N/A   Overcast
2:53 PM 12.0 °F -4.5 °F 3.0 °F 67% 30.17 in 10.0 mi SSE 16.1 mph - N/A   Overcast
3:53 PM 10.0 °F -8.1 °F 1.9 °F 70% 30.19 in 10.0 mi SSE 18.4 mph - N/A   Overcast
4:53 PM 9.0 °F -8.5 °F 1.0 °F 70% 30.19 in 10.0 mi SE 16.1 mph - 0.00 in   Overcast
5:53 PM 8.1 °F -11.2 °F -0.0 °F 70% 30.20 in 9.0 mi SE 19.6 mph - N/A   Overcast
6:53 PM 6.1 °F -9.5 °F -0.0 °F 76% 30.23 in 10.0 mi SE 11.5 mph - 0.00 in   Overcast
7:53 PM 3.9 °F -14.3 °F -2.9 °F 73% 30.25 in 10.0 mi SE 15.0 mph - N/A   Overcast
8:53 PM 3.9 °F -16.1 °F -2.0 °F 76% 30.24 in 10.0 mi SE 18.4 mph - N/A   Overcast
9:26 PM 3.9 °F -14.3 °F -2.9 °F 73% 29.94 in 10.0 mi SE 15.0 mph - N/A   Overcast
9:53 PM 3.0 °F -17.3 °F -2.9 °F 76% 30.25 in 10.0 mi SSE 18.4 mph 26.5 mph N/A   Overcast
10:53 PM 1.9 °F -20.2 °F -2.9 °F 80% 30.20 in 10.0 mi SSE 21.9 mph - N/A   Scattered Clouds
11:53 PM 1.9 °F -20.7 °F -2.9 °F 80% 30.15 in 10.0 mi SSE 23.0 mph - N/A   Scattered Clouds